Hourly Data Report for October 04, 2016

All times are specified in Local Standard Time (LST). Add 1 hour to adjust for Daylight Saving Time where and when it is observed.

KAMLOOPS A
BRITISH COLUMBIA

50°42'09.000" N
120°26'55.000" W
345.30 m
1163781
71887
YKA

Download Data

Hourly Data (October 2016)
Hourly Data Report for October 4, 2016
Temp Definition
°C
Dew Point Temp Definition
°C
Rel Hum Definition
%
Wind Dir Definition
10's deg

Wind Spd Definition
km/h
Visibility Definition
km
Stn Press Definition
kPa
Hmdx Definition


Wind Chill Definition


Weather Definition


TIME
00:00 Legend Double Dagger 10.3 3.8 64 11 19 64.4 96.77     LegendNANA
01:00 Legend Double Dagger 9.7 4.3 69 9 16 64.4 96.80     Mostly Cloudy
02:00 Legend Double Dagger 9.4 4.4 71 10 18 64.4 96.80     LegendNANA
03:00 Legend Double Dagger 9.3 4.3 71 12 13 64.4 96.83     LegendNANA
04:00 Legend Double Dagger 9.1 4.0 70 12 12 64.4 96.87     Cloudy
05:00 Legend Double Dagger 8.7 4.7 76 12 9 64.4 96.88     Rain Showers
06:00 Legend Double Dagger 8.1 5.2 82 11 12 48.3 96.91     Rain Showers
07:00 Legend Double Dagger 8.7 5.1 78 11 13 48.3 96.92     Mostly Cloudy
08:00 Legend Double Dagger 9.2 4.8 74 12 12 48.3 96.95     LegendNANA
09:00 Legend Double Dagger 11.6 6.2 69 11 16 64.4 96.95     LegendNANA
10:00 Legend Double Dagger 11.4 5.7 68 7 14 64.4 96.95     Rain Showers
11:00 Legend Double Dagger 12.5 6.4 66 10 15 64.4 96.94     Rain Showers
12:00 Legend Double Dagger 13.7 6.8 63 11 16 64.4 96.92     Rain Showers
13:00 Legend Double Dagger 14.3 7.2 62 10 16 64.4 96.89     Cloudy
14:00 Legend Double Dagger 14.3 8.5 68 12 9 64.4 96.88     Rain Showers
15:00 Legend Double Dagger 15.6 5.6 51 12 10 64.4 96.84     LegendNANA
16:00 Legend Double Dagger 15.1 6.2 55 12 7 64.4 96.85     Mostly Cloudy
17:00 Legend Double Dagger 13.7 6.4 61 13 9 64.4 96.91     Rain Showers
18:00 Legend Double Dagger 11.7 7.8 77 7 8 64.4 96.95     LegendNANA
19:00 Legend Double Dagger 10.3 6.5 77 7 4 64.4 96.98     Mostly Cloudy
20:00 Legend Double Dagger 10.9 6.3 73 4 8 64.4 97.02     LegendNANA
21:00 Legend Double Dagger 10.2 5.6 73 8 10 64.4 97.04     LegendNANA
22:00 Legend Double Dagger 9.6 5.2 74 3 9 64.4 97.08     Mostly Cloudy
23:00 Legend Double Dagger 8.4 4.8 78 36 1 64.4 97.13     LegendNANA

Notes on Data Quality.

Legend

  • E = Estimated
  • M = Missing
  • NA = Not Available
  • ‡ = Partner data that is not subject to review by the National Climate Archives
Date modified: